DW2973 Frederiksvaerk DK current weather conditions

sailwx.info

Wind from 226

Air temperature 12.8° C
Dewpoint 12.8° C

Last reported at 2020-Jul-10 15:00 UTC.
Time now 2020-Jul-10 15:53 UTC

Location: N 55°59' E 011°59'.
View on Google Maps.

See reports from other nearby stations

  
Tides and Currents Weather Stations Pressure Air Temp Water Temp Dewpoint Dewpoint Depression Visibility Wind Speed Wind Dir Waves Ship Positions
date/time (UTC)wind fromknots sea level pressurealtimeterstation pressurevisibilityair tempwater tempwave heightnotes
2020-Jul-10 15:00 226 12.8
2020-Jul-10 14:46 227 12.8
2020-Jul-10 14:31 227 12.8
2020-Jul-10 14:16 226 12.8
2020-Jul-10 14:00 227 12.2
2020-Jul-10 13:46 227 0 12.2
2020-Jul-10 13:30 225 6 12.8
2020-Jul-10 13:15 232 5 13.9
2020-Jul-10 13:00 252 14.4
2020-Jul-10 12:45 319 14.4
2020-Jul-10 12:30 324 0 15.0
2020-Jul-10 12:15 355 15.0
2020-Jul-10 12:00 355 15.6
2020-Jul-10 11:45 360 15.0
2020-Jul-10 11:30 005 15.0
2020-Jul-10 11:16 315 15.0
2020-Jul-10 11:01 349 15.0
2020-Jul-10 10:46 349 15.0
2020-Jul-10 10:31 349 15.0
2020-Jul-10 10:16 349 15.0
2020-Jul-10 10:00 349 14.4
2020-Jul-10 09:45 349 14.4
2020-Jul-10 09:30 349 15.0
2020-Jul-10 09:16 349 16.1
2020-Jul-10 09:00 209 17.2
2020-Jul-10 08:45 209 0 17.8
2020-Jul-10 08:30 206 0 17.2
2020-Jul-10 08:15 229 16.7
2020-Jul-10 08:02 229 16.7
2020-Jul-10 07:46 190 16.1
2020-Jul-10 07:31 190 15.6
2020-Jul-10 07:15 190 15.6
2020-Jul-10 07:01 232 15.6
2020-Jul-10 06:46 232 15.6
2020-Jul-10 06:30 229 0 15.0
2020-Jul-10 06:16 014 14.4
2020-Jul-10 06:00 014 13.9
2020-Jul-10 05:45 012 13.3
2020-Jul-10 05:30 012 12.8
2020-Jul-10 05:15 012 12.2
2020-Jul-10 05:00 005 11.7
2020-Jul-10 04:45 011 10.6
2020-Jul-10 04:33 011 10.6
2020-Jul-10 04:19 011 10.0
2020-Jul-10 04:01 011 10.0
2020-Jul-10 03:46 011 10.0
2020-Jul-10 03:31 011 10.0
2020-Jul-10 03:18 011 10.0
2020-Jul-10 03:01 011 10.6
2020-Jul-10 02:45 011 10.6
2020-Jul-10 02:30 011 11.1
2020-Jul-10 02:15 011 11.1
2020-Jul-10 02:00 011 11.7
2020-Jul-10 01:45 011 11.7
2020-Jul-10 01:30 011 11.7
2020-Jul-10 01:15 011 11.1
2020-Jul-10 01:01 011 10.6
2020-Jul-10 00:46 011 10.6
2020-Jul-10 00:32 011 10.6
2020-Jul-10 00:16 011 10.0
2020-Jul-10 00:02 011 10.0
2020-Jul-09 23:47 011 10.0
2020-Jul-09 23:31 011 9.4
2020-Jul-09 23:15 011 9.4
2020-Jul-09 23:00 011 9.4
2020-Jul-09 22:45 011 9.4
2020-Jul-09 22:30 011 10.0
2020-Jul-09 22:15 011 10.0
2020-Jul-09 22:00 011 10.0
2020-Jul-09 21:46 011 10.0
2020-Jul-09 21:31 011 10.0
2020-Jul-09 21:16 011 10.6
2020-Jul-09 21:01 011 11.1
2020-Jul-09 20:47 011 11.1
2020-Jul-09 20:31 011 11.7
2020-Jul-09 20:15 011 12.2
2020-Jul-09 20:00 011 12.8
2020-Jul-09 19:45 011 13.9
2020-Jul-09 19:30 011 14.4
2020-Jul-09 19:15 011 15.0
2020-Jul-09 19:00 011 15.0
2020-Jul-09 18:45 011 15.0
2020-Jul-09 18:30 010 15.0
2020-Jul-09 18:16 011 15.0
2020-Jul-09 18:01 011 15.6
2020-Jul-09 17:46 009 0 16.1
2020-Jul-09 17:31 355 17.2
2020-Jul-09 17:15 355 18.9
2020-Jul-09 17:01 360 17.8
2020-Jul-09 16:47 296 0 17.2
2020-Jul-09 16:31 360 17.8
2020-Jul-09 16:15 010 0 17.2
2020-Jul-09 16:00 005 1 17.8
2020-Jul-09 15:45 338 18.9
2020-Jul-09 15:30 041 0 18.9
2020-Jul-09 15:15 336 19.4
2020-Jul-09 15:00 260 19.4
2020-Jul-09 14:47 328 18.9
2020-Jul-09 14:32 351 19.4
2020-Jul-09 14:16 037 18.9
2020-Jul-09 14:01 287 18.3
2020-Jul-09 13:46 256 0 18.3
2020-Jul-09 13:30 236 0 18.3
2020-Jul-09 13:17 253 0 17.2
2020-Jul-09 13:00 355 0 16.7
2020-Jul-09 12:45 246 0 17.2
2020-Jul-09 12:30 333 0 18.3
2020-Jul-09 12:15 342 0 18.3
2020-Jul-09 12:00 221 0 17.8
2020-Jul-09 11:45 276 17.2
2020-Jul-09 11:32 269 17.2
2020-Jul-09 11:17 309 0 16.7
2020-Jul-09 11:01 296 16.7
2020-Jul-09 10:46 228 16.7
2020-Jul-09 10:31 225 0 17.2
2020-Jul-09 10:15 329 0 16.7
2020-Jul-09 10:00 261 16.7
2020-Jul-09 09:46 315 17.2
2020-Jul-09 09:30 264 17.2
2020-Jul-09 09:15 272 17.8
2020-Jul-09 09:00 269 17.2
2020-Jul-09 08:46 255 17.8
2020-Jul-09 08:30 233 0 17.8
2020-Jul-09 08:15 265 0 17.2
2020-Jul-09 08:03 281 0 16.7
2020-Jul-09 07:46 241 2 15.6
2020-Jul-09 07:32 254 1 15.6
2020-Jul-09 07:16 228 0 15.6
2020-Jul-09 07:01 277 1 15.0
2020-Jul-09 06:45 250 0 14.4
2020-Jul-09 06:31 236 3 13.9
2020-Jul-09 06:15 257 1 13.3
2020-Jul-09 06:00 236 1 12.8
2020-Jul-09 05:45 262 2 12.8
2020-Jul-09 05:30 302 1 12.2
2020-Jul-09 05:15 240 0 12.2
2020-Jul-09 05:00 305 0 11.7
2020-Jul-09 04:45 300 11.1
2020-Jul-09 04:31 275 11.1
2020-Jul-09 04:17 275 11.1
2020-Jul-09 04:01 227 11.1
2020-Jul-09 03:45 263 0 11.1
2020-Jul-09 03:30 261 10.6
2020-Jul-09 03:15 250 0 10.6
2020-Jul-09 03:01 277 10.6
2020-Jul-09 02:45 272 10.6
2020-Jul-09 02:30 271 10.6
2020-Jul-09 02:15 219 10.6
2020-Jul-09 02:00 260 10.6
2020-Jul-09 01:45 242 0 10.6
2020-Jul-09 01:30 263 0 10.6
2020-Jul-09 01:17 265 11.1
2020-Jul-09 01:01 269 1 11.1
2020-Jul-09 00:48 252 11.1
2020-Jul-09 00:31 257 0 11.1
2020-Jul-09 00:16 248 0 11.1
2020-Jul-09 00:01 009 0 11.1
2020-Jul-08 23:46 250 0 11.7
2020-Jul-08 23:30 276 0 11.7
2020-Jul-08 23:15 334 11.7
2020-Jul-08 23:00 297 0 11.7
2020-Jul-08 22:45 269 0 12.2
2020-Jul-08 22:30 290 0 12.2
2020-Jul-08 22:15 269 12.2
2020-Jul-08 22:00 302 12.2
2020-Jul-08 21:46 290 12.2
2020-Jul-08 21:31 342 0 12.2
2020-Jul-08 21:16 245 12.8
2020-Jul-08 21:01 265 12.8
2020-Jul-08 20:46 306 12.8
2020-Jul-08 20:31 257 13.3
2020-Jul-08 20:16 290 0 13.3
2020-Jul-08 20:00 232 0 13.3
2020-Jul-08 19:46 249 0 13.3
2020-Jul-08 19:30 267 1 13.9
2020-Jul-08 19:15 269 0 14.4
2020-Jul-08 19:00 253 2 14.4
2020-Jul-08 18:45 253 1 15.0
2020-Jul-08 18:30 302 2 15.0
2020-Jul-08 18:17 248 1 15.6
2020-Jul-08 18:01 267 1 16.7
2020-Jul-08 17:46 233 3 16.7
2020-Jul-08 17:32 246 1 17.2
2020-Jul-08 17:17 244 3 17.2
2020-Jul-08 17:01 268 3 17.8
2020-Jul-08 16:46 257 3 17.8
2020-Jul-08 16:30 238 4 17.8
2020-Jul-08 16:15 250 3 18.3
2020-Jul-08 16:00 214 3 17.8
2020-Jul-08 15:45 259 4 17.8
2020-Jul-08 15:30 246 5 17.8
2020-Jul-08 15:15 257 4 17.8
2020-Jul-08 15:00 270 6 17.8